Location: Crescent
(42.8242°N, 73.7329°W)
Time: 02:38:16
(UTC+00:00)

Tiros 1 - Pass Details

Date: 17 February 2026
Orbit: 618 x 649 km, 48.4° (Epoch: 13 March)

Event Time Altitude Azimuth Distance (km) Brightness Sun altitude
Rises 12:50:14 0° 211° (SSW) 2,907 10.5 9.6°
Reaches altitude 10° 12:52:45 10° 201° (SSW) 1,997 9.8 10.0°
Maximum altitude 12:56:46 30° 140° (SE) 1,112 9.7 10.7°
Drops below altitude 10° 13:00:47 10° 79° (ENE) 1,991 10.6 11.4°
Sets 13:03:17 0° 69° (ENE) 2,896 11.1 11.8°
